Location: Habighorst
(52.7089°N, 10.2278°E)
Time: 10:07:05
(UTC+00:00)

Cosmos 1862 Rocket - Visible Passes

Search period start: 10 April 2026 00:00
Search period end: 20 April 2026 00:00
Orbit: 598 x 625 km, 82.5° (Epoch: 10 April)

Date Brightness Start Highest point End Pass type
(mag) Time Alt. Az. Time Alt. Az. Time Alt. Az.
10 Apr 6.3 19:50:19 10° NW 19:53:30 20° W 19:56:40 10° SW visible
11 Apr 6.6 20:06:17 10° NW 20:08:11 13° W 20:10:04 10° WSW visible
12 Apr 4.4 18:41:46 10° NNW 18:46:07 56° W 18:50:26 10° S visible
13 Apr 5.4 18:56:56 10° NNW 19:00:58 35° W 19:04:57 10° SSW visible
14 Apr 6.2 19:12:17 10° NW 19:15:44 22° W 19:19:09 10° SW visible
15 Apr 6.6 19:28:02 10° NW 19:30:26 14° W 19:32:49 10° WSW visible
